CST,Max TemperatureF,Mean TemperatureF,Min TemperatureF,Max Dew PointF,MeanDew PointF,Min DewpointF,Max Humidity, Mean Humidity, Min Humidity, Max Sea Level PressureIn, Mean Sea Level PressureIn, Min Sea Level PressureIn, Max VisibilityMiles, Mean VisibilityMiles, Min VisibilityMiles, Max Wind SpeedMPH, Mean Wind SpeedMPH, Max Gust SpeedMPH,PrecipitationIn, CloudCover, Events, WindDirDegrees
2014-2-1,19,10,1,15,3,-4,92,77,62,30.35,30.16,29.94,10,10,9,24,12,31,T,6,Snow,301
2014-2-2,23,10,-3,9,2,-7,87,70,52,30.37,30.28,30.18,10,10,10,17,5,22,T,1,,218
2014-2-3,20,9,-2,9,4,-4,95,79,62,30.39,30.29,30.20,10,10,6,13,6,,T,5,Snow,48
2014-2-4,11,6,0,6,-4,-10,83,73,62,30.62,30.49,30.32,10,8,2,24,16,29,T,8,Snow,27
2014-2-5,4,-1,-7,-5,-8,-11,82,72,62,30.71,30.67,30.56,10,9,4,23,13,29,T,4,Snow,325
2014-2-6,5,-2,-10,-5,-10,-15,83,74,65,30.66,30.52,30.38,10,10,10,21,10,25,0.00,1,,268
2014-2-7,17,4,-9,4,-4,-14,80,67,54,30.37,30.25,30.14,10,10,9,15,8,21,T,1,Snow,210
2014-2-8,17,10,2,8,5,-1,88,78,67,30.32,30.10,29.97,10,6,0,12,6,15,0.06,6,Fog-Snow,135
2014-2-9,6,-3,-12,-3,-9,-16,95,82,68,30.56,30.45,30.34,10,10,9,16,8,20,0.00,2,,317
2014-2-10,6,-6,-18,-6,-11,-20,89,75,60,30.61,30.55,30.51,10,10,10,9,3,14,0.00,3,,353
2014-2-11,24,11,-2,17,8,-7,80,74,68,30.48,30.18,29.95,10,10,10,26,16,33,T,8,,175
2014-2-12,24,16,8,19,12,3,91,74,57,30.21,30.02,29.69,10,7,1,22,9,30,0.10,6,Snow,47
2014-2-13,36,23,10,27,13,5,81,74,67,29.84,29.73,29.57,10,8,1,32,15,42,0.02,5,Snow,325
2014-2-14,11,2,-7,7,3,-8,91,79,66,30.17,29.93,29.70,10,6,1,15,7,18,0.15,6,Snow,351
2014-2-15,41,23,5,29,17,1,86,75,64,30.14,29.92,29.73,10,10,9,32,16,43,T,5,,275
2014-2-16,27,13,-1,22,9,-3,95,85,74,30.24,30.06,29.76,10,9,2,25,14,41,T,7,Snow,114
2014-2-17,41,34,27,30,26,22,92,73,54,29.85,29.76,29.66,10,8,1,28,12,34,0.15,6,Rain-Snow,231
2014-2-18,44,30,15,32,26,16,92,72,52,29.91,29.73,29.60,10,10,10,18,7,24,0.00,3,,277
2014-2-19,50,36,22,29,25,20,92,64,36,29.90,29.74,29.58,10,10,10,28,11,36,0.00,4,,197
2014-2-20,37,27,16,32,23,9,96,80,64,29.71,29.62,29.50,10,9,6,35,18,45,0.02,7,Snow,318
2014-2-21,31,23,14,15,9,5,73,60,46,29.93,29.81,29.70,10,10,10,25,12,31,0.00,1,,300
2014-2-22,26,19,12,11,7,3,71,59,40,30.28,30.11,29.95,10,10,10,18,11,23,0.00,3,,315
2014-2-23,25,17,8,9,6,2,80,65,50,30.43,30.37,30.29,10,10,10,21,10,25,0.00,2,,310
2014-2-24,17,10,2,12,6,-2,92,77,61,30.49,30.35,30.22,10,4,0,15,7,22,0.17,7,Fog-Snow,52
2014-2-25,9,0,-10,-2,-7,-13,87,75,63,30.56,30.50,30.46,10,10,10,23,12,29,T,2,,302
2014-2-26,25,7,-11,10,-2,-15,86,69,52,30.51,30.13,29.88,10,10,10,217,11,217,0.00,0,,271
2014-2-27,6,-2,-11,-7,-12,-18,76,64,51,30.27,30.15,29.97,10,10,10,17,8,26,0.00,2,,91
2014-2-28,20,11,1,13,5,-9,76,69,62,30.31,29.98,29.83,10,8,1,24,13,30,0.01,8,Snow,322